sat.trackr.live / text

‹ back to catalog

STARLINK-30311

NORAD 57637 · 2023-122F

PAYLOAD ACTIVE UNKNOWN

§ Identity

Operator
Country
US
Launch date
2023-08-17
Launch site
AFETR
Launch vehicle
Mass (kg)
RCS (m²)

Purposes: comms

External: N2YO · Heavens-Above · Gunter

§ Orbital elements

Epoch: 2026-09-19T21:44:37.758048Z

Period
94.27 min
Inclination
43.0012°
Eccentricity
0.0001138
Mean motion
15.27574174 rev/d
Perigee alt
482.3 km
Apogee alt
483.8 km
Semi-major
6,861.2 km
B*
3.3986e-5
RAAN
75.3515°
Arg perigee
268.0919°
Mean anomaly
91.9803°
Rev number
17,191

§ Raw data

STARLINK-303111 57637U 23122F   26262.90599257  .00000673  00000+0  33986-4 0  99902 57637  43.0012  75.3515 0001138 268.0919  91.9803 15.27574174171916

JSON: /api/v1/satellites/57637 · /tle

For live sub-satellite position, see the globe view (requires WebGL).

§ Visibility from observer

Set your observer location to see the next 7 days of passes ≥ 10°. The values pass through the URL so the page stays shareable.

No JS? Fill the form by hand. The geolocation button needs JavaScript.